• Join FlightAware (Why Join?)
  • Login
  • US Flag GB Flag 
07:50 EDT


 

Airport Tracker/Info


-or-


 

Live Flight TrackerFlight Track Log ✈ UAL3776 ✈ 18-Apr-2013 ✈ KMIA - KIAD

Flight Track Log - Related Links

Times and Time Zones

All times are in EDT time to prevent confusion due to time zone crossing. See the UAL3776 flight status page for this flight to view local times or setup timezone preferences in your user account.

Time Position Orientation Groundspeed Altitude Reporting Facility
EDT Latitude Longitude Course Direction KTS MPH feet Rate Location/Type
12:01 25.7983 -80.2653 63° Northeast 192 221 800  Level Miami Center
12:03 25.8378 -80.1808 63° Northeast 280 322 3,500 2,220 Climbing Miami Center
12:04 25.9086 -80.1900 353° North 277 319 6,300 2,640 Climbing Miami Center
12:05 25.9725 -80.2308 330° Northwest 290 334 8,700 1,980 Climbing Miami Center
12:06 26.0422 -80.2861 325° Northwest 306 352 10,300 1,560 Climbing Miami Center
12:07 26.1244 -80.3461 327° Northwest 323 372 11,900 1,860 Climbing Miami Center
12:08 26.2044 -80.4089 325° Northwest 344 396 14,100 1,980 Climbing Miami Center
12:09 26.3053 -80.4650 333° Northwest 358 412 15,900 900 Climbing Miami Center
12:10 26.3983 -80.5097 337° Northwest 386 444 16,000 540 Climbing Miami Center
12:11 26.5158 -80.5644 337° Northwest 419 482 17,000 1,500 Climbing Miami Center
12:12 26.6128 -80.6117 336° Northwest 413 475 19,100 1,980 Climbing Miami Center
12:13 26.7222 -80.6617 338° Northwest 403 464 21,000 1,680 Climbing Miami Center
12:14 26.8253 -80.7092 338° Northwest 398 458 22,500 1,440 Climbing Miami Center
12:15 26.9328 -80.7500 341° North 398 458 23,900 1,260 Climbing Miami Center
12:16 27.0425 -80.7886 343° North 404 465 25,100 1,380 Climbing Miami Center
12:17 27.1542 -80.8275 343° North 409 471 26,700 1,380 Climbing Miami Center
12:18 27.2636 -80.8708 341° North 409 471 27,900 1,380 Climbing Miami Center
12:19 27.3775 -80.9075 344° North 414 476 29,500 1,620 Climbing Miami Center
12:20 27.4806 -80.9486 341° North 414 476 31,200 1,620 Climbing Miami Center
12:21 27.5839 -80.9850 343° North 398 458 32,800 1,200 Climbing Miami Center
12:22 27.6831 -81.0214 342° North 385 443 33,700 780 Climbing Miami Center
12:23 27.7844 -81.0556 343° North 380 437 34,600 540 Climbing Miami Center
12:24 27.9061 -81.1025 341° North 380 437 35,000 180 Climbing Miami Center
12:25 28.0156 -81.1419 342° North 394 453 35,000  Level Miami Center
12:26 28.1167 -81.1786 342° North 404 465 35,000  Level Miami Center
12:27 28.2303 -81.2206 342° North 420 483 35,000  Level Miami Center
12:28 28.3583 -81.2658 343° North 431 496 35,000  Level Miami Center
12:29 28.4758 -81.3081 342° North 438 504 35,000  Level Miami Center
12:30 28.5914 -81.3506 342° North 438 504 35,000  Level Miami Center
12:31 28.6922 -81.3878 342° North 438 504 35,000  Level Miami Center
12:31 28.7381 -81.4008 346° North 435 501 35,000  Level Jacksonville Center
12:32 28.8556 -81.4442 342° North 435 501 35,000  Level Jacksonville Center
12:33 28.9728 -81.4875 342° North 435 501 35,000  Level Jacksonville Center
12:34 29.0903 -81.5261 344° North 435 501 35,000  Level Jacksonville Center
12:35 29.2075 -81.5650 344° North 441 507 35,000  Level Jacksonville Center
12:36 29.3206 -81.6089 341° North 441 507 35,000  Level Jacksonville Center
12:37 29.4400 -81.6503 343° North 441 507 35,000  Level Jacksonville Center
12:38 29.5633 -81.6606 356° North 441 507 35,000  Level Jacksonville Center
12:39 29.6864 -81.6447 North 436 502 35,000  Level Jacksonville Center
12:40 29.8114 -81.6286 North 441 507 35,000  Level Jacksonville Center
12:41 29.9364 -81.6103 North 441 507 35,000  Level Jacksonville Center
12:42 30.0617 -81.5942 North 446 513 35,000  Level Jacksonville Center
12:43 30.1889 -81.5781 North 446 513 35,000  Level Jacksonville Center
12:44 30.3117 -81.5619 North 446 513 35,000  Level Jacksonville Center
12:45 30.4389 -81.5433 North 446 513 35,000  Level Jacksonville Center
12:46 30.5642 -81.5269 North 446 513 35,000  Level Jacksonville Center
12:47 30.6869 -81.5133 North 446 513 35,000  Level Jacksonville Center
12:48 30.8122 -81.4944 North 446 513 35,000  Level Jacksonville Center
12:49 30.9394 -81.4781 North 446 513 35,000  Level Jacksonville Center
12:50 31.0644 -81.4617 North 446 513 35,000  Level Jacksonville Center
12:51 31.1936 -81.4450 North 451 519 35,000  Level Jacksonville Center
12:52 31.3186 -81.4214 North 450 518 35,000  Level Jacksonville Center
12:53 31.4350 -81.3658 22° Northeast 448 516 35,000  Level Jacksonville Center
12:54 31.5406 -81.3033 27° Northeast 460 529 35,000  Level Jacksonville Center
12:55 31.6711 -81.2278 26° Northeast 465 535 35,000  Level Jacksonville Center
12:56 31.7769 -81.1622 28° Northeast 465 535 35,000  Level Jacksonville Center
12:57 31.9072 -81.0839 27° Northeast 470 541 35,000  Level Jacksonville Center
12:58 32.0253 -81.0156 26° Northeast 470 541 35,000  Level Jacksonville Center
12:59 32.1328 -80.9494 28° Northeast 470 541 35,000  Level Jacksonville Center
13:00 32.2653 -80.8731 26° Northeast 465 535 35,000  Level Jacksonville Center
13:01 32.3686 -80.8117 27° Northeast 459 528 35,000  Level Jacksonville Center
13:02 32.4989 -80.7325 27° Northeast 465 535 35,000  Level Jacksonville Center
13:03 32.6144 -80.6606 28° Northeast 465 535 35,000  Level Jacksonville Center
13:04 32.7300 -80.5911 27° Northeast 459 528 35,000 -60 Level Jacksonville Center
13:05 32.8478 -80.5189 27° Northeast 459 528 34,900  Descending Jacksonville Center
13:06 32.9656 -80.4489 26° Northeast 464 534 35,000  Climbing Jacksonville Center
13:07 33.0683 -80.3817 29° Northeast 469 540 35,000  Level Jacksonville Center
13:08 33.1947 -80.3333 18° North 464 534 35,000  Level Jacksonville Center
13:09 33.3281 -80.3147 North 464 534 35,000  Level Jacksonville Center
13:10 33.4550 -80.2936 North 464 534 35,000  Level Jacksonville Center
13:11 33.5808 -80.2275 24° Northeast 469 540 35,000  Level Jacksonville Center
13:12 33.7022 -80.1514 28° Northeast 475 547 35,000  Level Jacksonville Center
13:13 33.8217 -80.0753 28° Northeast 480 552 35,000  Level Jacksonville Center
13:14 33.9453 -80.0011 26° Northeast 485 558 35,000  Level Jacksonville Center
13:15 34.0686 -79.9269 26° Northeast 485 558 35,000  Level Jacksonville Center
13:17 34.3178 -79.7758 27° Northeast 467 537 35,000  Level Washington Center
13:18 34.4475 -79.6994 26° Northeast 488 562 35,000  Level Washington Center
13:19 34.5775 -79.6203 27° Northeast 513 590 35,000  Level Washington Center
13:20 34.7181 -79.5414 25° Northeast 513 590 35,000  Level Washington Center
13:21 34.8328 -79.4733 26° Northeast 513 590 35,000  Level Washington Center
13:22 34.9731 -79.3939 25° Northeast 503 579 35,000  Level Washington Center
13:23 35.1006 -79.3189 26° Northeast 503 579 35,000  Level Washington Center
13:24 35.2283 -79.2408 27° Northeast 503 579 35,000  Level Washington Center
13:25 35.3450 -79.1722 26° Northeast 503 579 35,000  Level Washington Center
13:26 35.4875 -79.0867 26° Northeast 503 579 35,000  Level Washington Center
13:27 35.5958 -79.0150 28° Northeast 498 573 35,000  Level Washington Center
13:28 35.7253 -78.9411 25° Northeast 498 573 35,000  Level Washington Center
13:29 35.8633 -78.8547 27° Northeast 498 573 35,000 -900 Level Washington Center
13:30 35.9906 -78.7778 26° Northeast 498 573 33,200 -2,100 Descending Washington Center
13:31 36.1156 -78.7031 26° Northeast 493 567 30,800 -2,460 Descending Washington Center
13:32 36.2444 -78.6439 20° North 495 570 28,300 -1,920 Descending Washington Center
13:33 36.3742 -78.6258 North 476 548 27,000 -660 Descending Washington Center
13:34 36.4972 -78.5531 25° Northeast 470 541 27,000  Level Washington Center
13:35 36.6158 -78.4722 29° Northeast 479 551 27,000  Level Washington Center
13:36 36.7242 -78.3983 29° Northeast 488 562 27,000  Level Washington Center
13:37 36.8450 -78.3119 30° Northeast 493 567 27,000 -480 Level Washington Center
13:38 36.9722 -78.2203 30° Northeast 493 567 26,100 -1,020 Descending Washington Center
13:39 37.0803 -78.1458 29° Northeast 493 567 25,000 -1,140 Descending Washington Center
13:40 37.2008 -78.0639 28° Northeast 493 567 23,900 -1,140 Descending Washington Center
13:41 37.3153 -77.9786 31° Northeast 488 562 22,800 -960 Descending Washington Center
13:42 37.4314 -77.8986 29° Northeast 488 562 22,000 -600 Descending Washington Center
13:43 37.5456 -77.8183 29° Northeast 483 556 21,700 -1,080 Descending Washington Center
13:44 37.6639 -77.7483 25° Northeast 466 536 19,900 -1,920 Descending Washington Center
13:45 37.7775 -77.6831 24° Northeast 454 522 17,900 -1,980 Descending Washington Center
13:46 37.8869 -77.6203 24° Northeast 442 509 16,000 -2,220 Descending Washington Center
13:47 37.9903 -77.5572 26° Northeast 427 491 13,500 -2,580 Descending Washington Center
13:48 38.0892 -77.5019 24° Northeast 403 464 10,900 -1,800 Descending Washington Center
13:49 38.1839 -77.4461 25° Northeast 381 438 10,000 -480 Descending Washington Center
13:50 38.2639 -77.4006 24° Northeast 343 395 10,000 -420 Level Washington Center
13:51 38.3439 -77.3575 23° Northeast 319 367 9,200 -1,200 Descending Washington Center
13:52 38.4272 -77.3594 359° North 309 356 7,600 -1,440 Descending Washington Center
13:53 38.5106 -77.3614 359° North 297 342 6,400 -1,080 Descending Washington Center
13:54 38.5958 -77.3661 358° North 297 342 5,500 -1,200 Descending Washington Center
13:55 38.6794 -77.3628 North 297 342 4,000 -780 Descending Washington Center
13:56 38.7608 -77.3594 North 292 336 4,000  Level Washington Center
13:57 38.8167 -77.3500 North 296 341 4,000  Level Potomac TRACON
13:58 38.9000 -77.3500 360° North 295 339 4,000 -180 Level Potomac TRACON
13:59 38.9667 -77.3500 360° North 235 270 3,700 -240 Descending Potomac TRACON
14:01 38.9474 -77.4599 North  Level Estimated
14:03 39.2000 -77.3500 195° South 211 243 3,000  Level Potomac TRACON
14:05 39.0925 -77.3871 201° Southwest  Level FlightAware Approximate
14:06 39.1000 -77.4333 201° Southwest 171 197 2,000  Level Potomac TRACON
14:08 38.9474 -77.4599 195° South  Level Estimated
14:08 39.0000 -77.4333 180° South 139 160 1,400  Level Potomac TRACON
14:09 38.9667 -77.4333 180° South 131 151 700 -720 Descending Potomac TRACON
14:11 38.9474 -77.4599 195° South  Level Estimated
14:18 38.9474 -77.4599 195° South  Level Estimated
14:19 38.9474 -77.4599 195° South  Level Estimated
14:20 38.9474 -77.4599 195° South  Level Estimated
14:21 38.9474 -77.4599 195° South  Level Estimated